"Period start","avg(HW err(1)/warn(2) (#))","avg(Visibility (m))","avg(Weather code (#))","avg(Precip intensity (mm/h))","min(HW err(1)/warn(2) (#))","max(HW err(1)/warn(2) (#))","std(HW err(1)/warn(2) (#))","med(HW err(1)/warn(2) (#))","min(Visibility (m))","max(Visibility (m))","std(Visibility (m))","med(Visibility (m))","min(Weather code (#))","max(Weather code (#))","std(Weather code (#))","med(Weather code (#))","min(Precip intensity (mm/h))","max(Precip intensity (mm/h))","std(Precip intensity (mm/h))","med(Precip intensity (mm/h))"
2014-08-22 00:00:00,0,48628,0,0.00,0,0,0,0,45124,50000,1495,48878,0,0,0,0,0.00,0.00,0.00,0.00
2014-08-22 00:10:00,0,49778,0,0.00,0,0,0,0,48187,50000,544,50000,0,0,0,0,0.00,0.00,0.00,0.00
2014-08-22 00:20:00,0,49199,0,0.00,0,0,0,0,47301,50000,1057,50000,0,0,0,0,0.00,0.00,0.00,0.00
2014-08-22 00:30:00,0,49637,0,0.00,0,0,0,0,47240,50000,840,50000,0,0,0,0,0.00,0.00,0.00,0.00
2014-08-22 00:40:00,0,49331,0,0.00,0,0,0,0,45745,50000,1366,50000,0,0,0,0,0.00,0.00,0.00,0.00
2014-08-22 00:50:00,0,48689,0,0.00,0,0,0,0,43933,50000,2042,50000,0,0,0,0,0.00,0.00,0.00,0.00
2014-08-22 01:00:00,0,49141,0,0.00,0,0,0,0,45099,50000,1563,50000,0,0,0,0,0.00,0.00,0.00,0.00
2014-08-22 01:10:00,0,49754,0,0.00,0,0,0,0,47544,50000,737,50000,0,0,0,0,0.00,0.00,0.00,0.00
2014-08-22 01:20:00,0,49453,0,0.00,0,0,0,0,48183,50000,624,49654,0,0,0,0,0.00,0.00,0.00,0.00
2014-08-22 01:30:00,0,49364,0,0.00,0,0,0,0,46882,50000,1122,50000,0,0,0,0,0.00,0.00,0.00,0.00
2014-08-22 01:40:00,0,40590,28,0.70,0,0,0,0,33882,46592,4979,41369,0,61,28,26,0.00,3.65,1.15,0.07
2014-08-22 01:50:00,0,27484,58,2.16,0,0,0,0,21194,35651,4293,27842,52,61,4,61,0.70,4.40,1.07,1.95
2014-08-22 02:00:00,0,29581,58,1.64,0,0,0,0,21572,49624,8241,27496,52,61,4,61,0.50,4.55,1.23,1.23
2014-08-22 02:10:00,1,31268,52,0.49,0,2,1,1,24919,37349,3652,31682,51,52,0,52,0.05,1.45,0.36,0.38
2014-08-22 02:20:00,1,41174,37,0.03,0,2,1,0,32283,50000,6170,39976,0,61,25,51,0.00,0.10,0.04,0.00
2014-08-22 02:30:00,0,43015,0,0.00,0,0,0,0,36556,50000,4101,43388,0,0,0,0,0.00,0.00,0.00,0.00
2014-08-22 02:40:00,0,44042,0,0.00,0,0,0,0,36082,49927,3386,44554,0,0,0,0,0.00,0.00,0.00,0.00
2014-08-22 02:50:00,0,34947,38,0.36,0,0,0,0,30216,41337,4041,34297,0,61,25,51,0.00,0.95,0.35,0.35
2014-08-22 03:00:00,0,14639,52,0.99,0,0,0,0,9756,26833,4993,13294,51,52,0,52,0.40,2.05,0.42,0.85
2014-08-22 03:10:00,2,7143,52,1.28,0,2,1,2,6166,9119,902,6895,51,52,0,52,0.10,3.40,1.22,0.80
2014-08-22 03:20:00,2,8262,56,1.10,2,2,0,2,3836,12866,3674,8001,51,61,4,52,0.10,2.90,0.93,0.93
2014-08-22 03:30:00,2,5652,53,7.18,0,2,1,2,3649,8422,1788,5109,52,62,3,52,0.30,34.50,10.79,1.58
2014-08-22 03:40:00,2,8014,62,34.95,2,2,0,2,5570,10755,1550,7916,62,63,0,62,13.10,59.35,14.03,32.95
2014-08-22 03:50:00,2,20414,61,3.48,2,2,0,2,10708,45555,11005,14358,61,62,0,61,0.15,11.85,4.29,0.98
2014-08-22 04:00:00,2,27572,53,0.68,2,2,0,2,14681,41072,7863,28374,51,61,4,51,0.20,1.85,0.46,0.55
2014-08-22 04:10:00,1,40300,36,0.10,0,2,1,2,18465,50000,10179,46288,0,51,23,51,0.00,0.35,0.12,0.03
2014-08-22 04:20:00,1,46932,0,0.00,0,2,1,0,43597,50000,2150,46596,0,0,0,0,0.00,0.00,0.00,0.00
2014-08-22 04:30:00,1,48239,0,0.00,0,2,1,0,43866,50000,2231,49880,0,0,0,0,0.00,0.00,0.00,0.00
2014-08-22 04:40:00,1,46425,0,0.00,0,2,1,2,41496,50000,2901,46646,0,0,0,0,0.00,0.00,0.00,0.00
2014-08-22 04:50:00,1,46311,0,0.00,0,2,1,2,40602,50000,2764,47323,0,0,0,0,0.00,0.00,0.00,0.00
2014-08-22 05:00:00,0,47354,0,0.00,0,0,0,0,41561,50000,3017,48790,0,0,0,0,0.00,0.00,0.00,0.00
2014-08-22 05:10:00,2,49237,0,0.00,2,2,0,2,45578,50000,1383,49976,0,0,0,0,0.00,0.00,0.00,0.00
2014-08-22 05:20:00,2,49289,0,0.00,2,2,0,2,47601,50000,775,49500,0,0,0,0,0.00,0.00,0.00,0.00
2014-08-22 05:30:00,0,49679,0,0.00,0,2,1,0,47816,50000,688,50000,0,0,0,0,0.00,0.00,0.00,0.00
2014-08-22 05:40:00,0,49604,0,0.00,0,0,0,0,46039,50000,1188,50000,0,0,0,0,0.00,0.00,0.00,0.00
2014-08-22 05:50:00,2,47768,0,0.00,2,2,0,2,38973,50000,3290,49312,0,0,0,0,0.00,0.00,0.00,0.00
2014-08-22 06:00:00,0,43623,17,0.43,0,0,0,0,24518,50000,10045,50000,0,61,27,0,0.00,3.20,0.97,0.00
2014-08-22 06:10:00,0,49947,0,0.00,0,2,1,0,49470,50000,159,50000,0,0,0,0,0.00,0.00,0.00,0.00
2014-08-22 06:20:00,1,44298,0,0.00,0,2,1,0,31790,50000,6179,45896,0,0,0,0,0.00,0.00,0.00,0.00
2014-08-22 06:30:00,0,49631,0,0.00,0,0,0,0,47552,50000,753,50000,0,0,0,0,0.00,0.00,0.00,0.00
2014-08-22 06:40:00,1,49751,0,0.00,0,2,1,0,47789,50000,659,50000,0,0,0,0,0.00,0.00,0.00,0.00
2014-08-22 06:50:00,1,45538,0,0.00,0,2,1,0,36382,50000,4328,45484,0,0,0,0,0.00,0.00,0.00,0.00
2014-08-22 07:00:00,0,49799,0,0.00,0,0,0,0,47986,50000,604,50000,0,0,0,0,0.00,0.00,0.00,0.00
2014-08-22 07:10:00,0,47790,0,0.00,0,0,0,0,37913,50000,3546,49550,0,0,0,0,0.00,0.00,0.00,0.00
2014-08-22 07:20:00,0,49675,0,0.00,0,0,0,0,48074,50000,594,50000,0,0,0,0,0.00,0.00,0.00,0.00
2014-08-22 07:30:00,0,49452,0,0.00,0,0,0,0,45669,50000,1306,50000,0,0,0,0,0.00,0.00,0.00,0.00
2014-08-22 07:40:00,0,44529,0,0.00,0,0,0,0,27429,50000,7591,49593,0,0,0,0,0.00,0.00,0.00,0.00
2014-08-22 07:50:00,0,48984,18,0.01,0,0,0,0,43991,50000,1793,50000,0,61,28,0,0.00,0.15,0.05,0.00
2014-08-22 08:00:00,0,49160,0,0.00,0,0,0,0,44469,50000,1752,50000,0,0,0,0,0.00,0.00,0.00,0.00
2014-08-22 08:10:00,0,50000,0,0.00,0,0,0,0,50000,50000,0,50000,0,0,0,0,0.00,0.00,0.00,0.00
2014-08-22 08:20:00,0,45801,0,0.00,0,0,0,0,39797,49329,3282,46446,0,0,0,0,0.00,0.00,0.00,0.00
2014-08-22 08:30:00,0,47562,0,0.00,0,0,0,0,42034,50000,2705,48566,0,0,0,0,0.00,0.00,0.00,0.00
2014-08-22 08:40:00,0,48820,0,0.00,0,0,0,0,46564,50000,1483,50000,0,0,0,0,0.00,0.00,0.00,0.00
2014-08-22 08:50:00,0,48999,0,0.00,0,0,0,0,46874,50000,1141,49356,0,0,0,0,0.00,0.00,0.00,0.00
2014-08-22 09:00:00,0,49861,0,0.00,0,0,0,0,49141,50000,287,50000,0,0,0,0,0.00,0.00,0.00,0.00
2014-08-22 09:10:00,0,49529,0,0.00,0,0,0,0,48218,50000,736,50000,0,0,0,0,0.00,0.00,0.00,0.00
2014-08-22 09:20:00,0,46313,6,0.00,0,0,0,0,13811,50000,10836,50000,0,61,18,0,0.00,0.00,0.00,0.00
2014-08-22 09:30:00,0,25767,52,0.53,0,0,0,0,16365,45863,7767,23423,51,61,3,52,0.00,1.65,0.48,0.40
2014-08-22 09:40:00,0,49288,5,0.00,0,0,0,0,46122,50000,1209,50000,0,51,15,0,0.00,0.00,0.00,0.00
2014-08-22 09:50:00,0,49567,0,0.00,0,0,0,0,47752,50000,728,50000,0,0,0,0,0.00,0.00,0.00,0.00
2014-08-22 10:00:00,0,49955,0,0.00,0,0,0,0,49553,50000,134,50000,0,0,0,0,0.00,0.00,0.00,0.00
2014-08-22 10:10:00,0,50000,0,0.00,0,0,0,0,50000,50000,0,50000,0,0,0,0,0.00,0.00,0.00,0.00
2014-08-22 10:20:00,0,49136,0,0.00,0,0,0,0,44175,50000,1720,50000,0,0,0,0,0.00,0.00,0.00,0.00
2014-08-22 10:30:00,0,48596,0,0.00,0,0,0,0,44584,50000,1959,50000,0,0,0,0,0.00,0.00,0.00,0.00
2014-08-22 10:40:00,0,49626,0,0.00,0,0,0,0,47680,50000,766,50000,0,0,0,0,0.00,0.00,0.00,0.00
2014-08-22 10:50:00,0,50000,0,0.00,0,0,0,0,50000,50000,0,50000,0,0,0,0,0.00,0.00,0.00,0.00
2014-08-22 11:00:00,0,50000,0,0.00,0,0,0,0,50000,50000,0,50000,0,0,0,0,0.00,0.00,0.00,0.00
2014-08-22 11:10:00,0,50000,0,0.00,0,0,0,0,50000,50000,0,50000,0,0,0,0,0.00,0.00,0.00,0.00
2014-08-22 11:20:00,0,50000,0,0.00,0,0,0,0,50000,50000,0,50000,0,0,0,0,0.00,0.00,0.00,0.00
2014-08-22 11:30:00,0,50000,0,0.00,0,0,0,0,50000,50000,0,50000,0,0,0,0,0.00,0.00,0.00,0.00
2014-08-22 11:40:00,0,50000,0,0.00,0,0,0,0,50000,50000,0,50000,0,0,0,0,0.00,0.00,0.00,0.00
2014-08-22 11:50:00,0,50000,0,0.00,0,0,0,0,50000,50000,0,50000,0,0,0,0,0.00,0.00,0.00,0.00
2014-08-22 12:00:00,0,50000,0,0.00,0,0,0,0,50000,50000,0,50000,0,0,0,0,0.00,0.00,0.00,0.00
2014-08-22 12:10:00,0,50000,0,0.00,0,0,0,0,50000,50000,0,50000,0,0,0,0,0.00,0.00,0.00,0.00
2014-08-22 12:20:00,0,50000,0,0.00,0,0,0,0,50000,50000,0,50000,0,0,0,0,0.00,0.00,0.00,0.00
2014-08-22 12:30:00,0,50000,0,0.00,0,0,0,0,50000,50000,0,50000,0,0,0,0,0.00,0.00,0.00,0.00
2014-08-22 12:40:00,0,50000,0,0.00,0,0,0,0,50000,50000,0,50000,0,0,0,0,0.00,0.00,0.00,0.00
2014-08-22 12:50:00,0,50000,0,0.00,0,0,0,0,50000,50000,0,50000,0,0,0,0,0.00,0.00,0.00,0.00
2014-08-22 13:00:00,1,50000,0,0.00,0,2,1,0,50000,50000,0,50000,0,0,0,0,0.00,0.00,0.00,0.00
2014-08-22 13:10:00,2,50000,0,0.00,0,2,1,2,50000,50000,0,50000,0,0,0,0,0.00,0.00,0.00,0.00
2014-08-22 13:20:00,2,50000,0,0.00,2,2,0,2,50000,50000,0,50000,0,0,0,0,0.00,0.00,0.00,0.00
2014-08-22 13:30:00,2,50000,0,0.00,0,2,1,2,50000,50000,0,50000,0,0,0,0,0.00,0.00,0.00,0.00
2014-08-22 13:40:00,0,50000,0,0.00,0,0,0,0,50000,50000,0,50000,0,0,0,0,0.00,0.00,0.00,0.00
2014-08-22 13:50:00,0,50000,0,0.00,0,0,0,0,50000,50000,0,50000,0,0,0,0,0.00,0.00,0.00,0.00
2014-08-22 14:00:00,0,50000,0,0.00,0,0,0,0,50000,50000,0,50000,0,0,0,0,0.00,0.00,0.00,0.00
2014-08-22 14:10:00,0,50000,0,0.00,0,0,0,0,50000,50000,0,50000,0,0,0,0,0.00,0.00,0.00,0.00
2014-08-22 14:20:00,1,50000,0,0.00,0,2,1,2,50000,50000,0,50000,0,0,0,0,0.00,0.00,0.00,0.00
2014-08-22 14:30:00,2,50000,0,0.00,2,2,0,2,50000,50000,0,50000,0,0,0,0,0.00,0.00,0.00,0.00
2014-08-22 14:40:00,2,50000,0,0.00,2,2,0,2,50000,50000,0,50000,0,0,0,0,0.00,0.00,0.00,0.00
2014-08-22 14:50:00,2,50000,0,0.00,2,2,0,2,50000,50000,0,50000,0,0,0,0,0.00,0.00,0.00,0.00
2014-08-22 15:00:00,2,50000,0,0.00,2,2,0,2,50000,50000,0,50000,0,0,0,0,0.00,0.00,0.00,0.00
2014-08-22 15:10:00,2,50000,0,0.00,2,2,0,2,50000,50000,0,50000,0,0,0,0,0.00,0.00,0.00,0.00
2014-08-22 15:20:00,2,50000,0,0.00,2,2,0,2,50000,50000,0,50000,0,0,0,0,0.00,0.00,0.00,0.00
2014-08-22 15:30:00,2,50000,0,0.00,2,2,0,2,50000,50000,0,50000,0,0,0,0,0.00,0.00,0.00,0.00
2014-08-22 15:40:00,2,50000,0,0.00,2,2,0,2,50000,50000,0,50000,0,0,0,0,0.00,0.00,0.00,0.00
2014-08-22 15:50:00,2,50000,0,0.00,2,2,0,2,50000,50000,0,50000,0,0,0,0,0.00,0.00,0.00,0.00
2014-08-22 16:00:00,2,50000,0,0.00,2,2,0,2,50000,50000,0,50000,0,0,0,0,0.00,0.00,0.00,0.00
2014-08-22 16:10:00,2,50000,0,0.00,2,2,0,2,50000,50000,0,50000,0,0,0,0,0.00,0.00,0.00,0.00
2014-08-22 16:20:00,2,50000,0,0.00,2,2,0,2,50000,50000,0,50000,0,0,0,0,0.00,0.00,0.00,0.00
2014-08-22 16:30:00,2,50000,0,0.00,2,2,0,2,50000,50000,0,50000,0,0,0,0,0.00,0.00,0.00,0.00
2014-08-22 16:40:00,2,50000,0,0.00,2,2,0,2,50000,50000,0,50000,0,0,0,0,0.00,0.00,0.00,0.00
2014-08-22 16:50:00,2,50000,0,0.00,2,2,0,2,50000,50000,0,50000,0,0,0,0,0.00,0.00,0.00,0.00
2014-08-22 17:00:00,2,50000,0,0.00,2,2,0,2,50000,50000,0,50000,0,0,0,0,0.00,0.00,0.00,0.00
2014-08-22 17:10:00,2,50000,0,0.00,2,2,0,2,50000,50000,0,50000,0,0,0,0,0.00,0.00,0.00,0.00
2014-08-22 17:20:00,2,50000,0,0.00,2,2,0,2,50000,50000,0,50000,0,0,0,0,0.00,0.00,0.00,0.00
2014-08-22 17:30:00,2,50000,0,0.00,2,2,0,2,50000,50000,0,50000,0,0,0,0,0.00,0.00,0.00,0.00
2014-08-22 17:40:00,2,50000,0,0.00,2,2,0,2,50000,50000,0,50000,0,0,0,0,0.00,0.00,0.00,0.00
2014-08-22 17:50:00,2,50000,0,0.00,2,2,0,2,50000,50000,0,50000,0,0,0,0,0.00,0.00,0.00,0.00
2014-08-22 18:00:00,2,50000,0,0.00,2,2,0,2,50000,50000,0,50000,0,0,0,0,0.00,0.00,0.00,0.00
2014-08-22 18:10:00,2,50000,0,0.00,2,2,0,2,50000,50000,0,50000,0,0,0,0,0.00,0.00,0.00,0.00
2014-08-22 18:20:00,2,50000,0,0.00,2,2,0,2,50000,50000,0,50000,0,0,0,0,0.00,0.00,0.00,0.00
2014-08-22 18:30:00,2,50000,0,0.00,2,2,0,2,50000,50000,0,50000,0,0,0,0,0.00,0.00,0.00,0.00
2014-08-22 18:40:00,2,50000,0,0.00,2,2,0,2,50000,50000,0,50000,0,0,0,0,0.00,0.00,0.00,0.00
2014-08-22 18:50:00,2,50000,0,0.00,2,2,0,2,50000,50000,0,50000,0,0,0,0,0.00,0.00,0.00,0.00
2014-08-22 19:00:00,2,50000,0,0.00,2,2,0,2,50000,50000,0,50000,0,0,0,0,0.00,0.00,0.00,0.00
2014-08-22 19:10:00,2,50000,0,0.00,2,2,0,2,50000,50000,0,50000,0,0,0,0,0.00,0.00,0.00,0.00
2014-08-22 19:20:00,2,50000,0,0.00,2,2,0,2,50000,50000,0,50000,0,0,0,0,0.00,0.00,0.00,0.00
2014-08-22 19:30:00,2,49998,0,0.00,2,2,0,2,49975,50000,8,50000,0,0,0,0,0.00,0.00,0.00,0.00
2014-08-22 19:40:00,2,50000,0,0.00,2,2,0,2,50000,50000,0,50000,0,0,0,0,0.00,0.00,0.00,0.00
2014-08-22 19:50:00,2,49904,0,0.00,2,2,0,2,49039,50000,288,50000,0,0,0,0,0.00,0.00,0.00,0.00
2014-08-22 20:00:00,2,50000,0,0.00,2,2,0,2,50000,50000,0,50000,0,0,0,0,0.00,0.00,0.00,0.00
2014-08-22 20:10:00,2,50000,0,0.00,2,2,0,2,50000,50000,0,50000,0,0,0,0,0.00,0.00,0.00,0.00
2014-08-22 20:20:00,2,49898,0,0.00,2,2,0,2,48976,50000,307,50000,0,0,0,0,0.00,0.00,0.00,0.00
2014-08-22 20:30:00,2,49980,0,0.00,2,2,0,2,49797,50000,61,50000,0,0,0,0,0.00,0.00,0.00,0.00
2014-08-22 20:40:00,2,49918,0,0.00,2,2,0,2,49183,50000,245,50000,0,0,0,0,0.00,0.00,0.00,0.00
2014-08-22 20:50:00,2,49836,0,0.00,2,2,0,2,48356,50000,493,50000,0,0,0,0,0.00,0.00,0.00,0.00
2014-08-22 21:00:00,2,49613,0,0.00,2,2,0,2,47911,50000,777,50000,0,0,0,0,0.00,0.00,0.00,0.00
2014-08-22 21:10:00,2,48955,0,0.00,2,2,0,2,44745,50000,1805,50000,0,0,0,0,0.00,0.00,0.00,0.00
2014-08-22 21:20:00,2,49897,0,0.00,2,2,0,2,49191,50000,240,50000,0,0,0,0,0.00,0.00,0.00,0.00
2014-08-22 21:30:00,2,49769,0,0.00,0,2,1,2,47694,50000,692,50000,0,0,0,0,0.00,0.00,0.00,0.00
2014-08-22 21:40:00,0,49538,0,0.00,0,0,0,0,46892,50000,917,50000,0,0,0,0,0.00,0.00,0.00,0.00
2014-08-22 21:50:00,0,48002,0,0.00,0,0,0,0,42895,50000,2792,49990,0,0,0,0,0.00,0.00,0.00,0.00
2014-08-22 22:00:00,0,47968,0,0.00,0,0,0,0,43891,50000,2415,49559,0,0,0,0,0.00,0.00,0.00,0.00
2014-08-22 22:10:00,0,49116,0,0.00,0,0,0,0,44779,50000,1804,50000,0,0,0,0,0.00,0.00,0.00,0.00
2014-08-22 22:20:00,0,49222,0,0.00,0,0,0,0,45744,50000,1531,50000,0,0,0,0,0.00,0.00,0.00,0.00
2014-08-22 22:30:00,0,49066,0,0.00,0,0,0,0,44656,50000,1893,50000,0,0,0,0,0.00,0.00,0.00,0.00
2014-08-22 22:40:00,0,43426,0,0.00,0,0,0,0,13875,50000,12113,50000,0,0,0,0,0.00,0.00,0.00,0.00
2014-08-22 22:50:00,0,47402,0,0.00,0,0,0,0,40855,50000,2956,48428,0,0,0,0,0.00,0.00,0.00,0.00
2014-08-22 23:00:00,0,49979,0,0.00,0,0,0,0,49786,50000,64,50000,0,0,0,0,0.00,0.00,0.00,0.00
2014-08-22 23:10:00,0,45454,0,0.00,0,0,0,0,37153,50000,4766,47160,0,0,0,0,0.00,0.00,0.00,0.00
2014-08-22 23:20:00,0,45459,0,0.00,0,0,0,0,36096,50000,5067,47080,0,0,0,0,0.00,0.00,0.00,0.00
2014-08-22 23:30:00,0,49370,0,0.00,0,0,0,0,45472,50000,1346,50000,0,0,0,0,0.00,0.00,0.00,0.00
2014-08-22 23:40:00,0,48594,0,0.00,0,2,1,0,41942,50000,2568,50000,0,0,0,0,0.00,0.00,0.00,0.00
2014-08-22 23:50:00,2,41646,0,0.00,0,2,1,2,29614,50000,7499,40122,0,0,0,0,0.00,0.00,0.00,0.00
